K5SOI Weather Reports


time (UTC)temp
F
wind
direction
speed
knots
gust
knots
rain 1hr
in
rain 24hr
in
rain mn
in
humidity
%
barometer
mb
20260507001107 82 123 4.3 8.7 0.00 0.04 0.04 88 1007.8
20260507000607 82 128 6.1 8.7 0.00 0.04 0.04 87 1007.8
20260507000107 82 128 7.0 10.4 0.00 0.04 0.04 87 1007.7
20260506235607 82 122 5.2 8.7 0.00 0.04 0.04 87 1007.7
20260506234107 83 129 6.1 8.7 0.00 0.04 0.04 86 1007.6
20260506233606 83 121 6.1 8.7 0.00 0.04 0.04 86 1007.6
20260506233107 83 109 7.8 10.4 0.00 0.04 0.04 86 1007.5
20260506232106 83 128 7.0 8.7 0.00 0.04 0.04 85 1007.5
20260506231606 83 117 7.0 10.4 0.00 0.04 0.04 86 1007.5
20260506231106 83 123 6.1 10.4 0.00 0.04 0.04 87 1007.5
20260506230606 82 117 7.0 10.4 0.00 0.04 0.04 86 1007.5
20260506230106 83 126 6.1 8.7 0.00 0.04 0.04 86 1007.5
20260506225606 83 127 5.2 8.7 0.00 0.04 0.04 86 1007.4
20260506225106 83 111 6.1 8.7 0.00 0.04 0.04 86 1007.4
20260506224606 83 123 6.1 8.7 0.00 0.04 0.04 86 1007.4
20260506224106 83 116 7.8 10.4 0.00 0.04 0.04 85 1007.3
20260506223606 83 127 7.8 10.4 0.00 0.04 0.04 85 1007.3
20260506223106 83 122 8.7 10.4 0.00 0.04 0.04 85 1007.2
20260506222605 83 116 10.4 13.0 0.00 0.04 0.04 84 1007.1
20260506222105 83 107 8.7 12.2 0.00 0.04 0.04 84 1007.1
20260506221606 83 122 8.7 13.0 0.00 0.04 0.04 85 1007.0
20260506221105 83 102 10.4 15.6 0.00 0.04 0.04 86 1007.2
20260506220107 84 109 10.4 13.9 0.00 0.04 0.04 85 1007.2
20260506215605 83 99 10.4 13.9 0.00 0.04 0.04 85 1007.2
20260506214605 84 105 10.4 13.0 0.00 0.04 0.04 84 1007.2
20260506214104 84 99 9.6 12.2 0.00 0.04 0.04 84 1007.2
20260506213605 84 94 9.6 11.3 0.00 0.04 0.04 82 1007.2
20260506213106 85 118 6.1 8.7 0.00 0.04 0.04 81 1007.2
20260506212604 85 136 6.1 10.4 0.00 0.04 0.04 82 1007.2
20260506212105 85 138 7.0 11.3 0.00 0.04 0.04 82 1007.2
20260506211604 85 104 9.6 13.0 0.00 0.04 0.04 84 1007.2
20260506211105 85 108 10.4 13.9 0.00 0.04 0.04 81 1007.1
20260506210605 87 121 6.1 10.4 0.00 0.04 0.04 79 1007.1
20260506210104 87 111 6.1 10.4 0.00 0.04 0.04 79 1007.2
20260506205604 88 157 4.3 8.7 0.00 0.04 0.04 77 1007.2
20260506205105 86 141 4.3 7.0 0.00 0.04 0.04 79 1007.2
20260506204605 86 127 5.2 7.8 0.00 0.04 0.04 79 1007.3
20260506204104 86 138 3.5 5.2 0.00 0.04 0.04 79 1007.4
20260506203604 86 215 5.2 7.8 0.00 0.04 0.04 78 1007.4
20260506203104 85 182 2.6 7.0 0.00 0.04 0.04 81 1007.5
20260506202604 85 208 0.9 6.1 0.00 0.04 0.04 80 1007.5
20260506202105 87 244 1.7 8.7 0.00 0.04 0.04 78 1007.5
20260506201604 87 178 3.5 8.7 0.00 0.04 0.04 80 1007.6
20260506201104 86 209 1.7 4.3 0.00 0.04 0.04 83 1007.6
20260506200604 85 185 2.6 7.8 0.00 0.04 0.04 83 1007.7
20260506195605 85 160 5.2 8.7 0.00 0.04 0.04 84 1007.9
20260506195104 84 134 6.1 10.4 0.00 0.04 0.04 84 1008.1
20260506194104 84 150 4.3 8.7 0.00 0.04 0.04 86 1008.3
20260506193604 84 143 7.8 11.3 0.00 0.04 0.04 85 1008.4
20260506193104 83 148 7.0 10.4 0.00 0.04 0.04 86 1008.4
20260506192604 84 155 6.1 10.4 0.00 0.04 0.04 86 1008.4
20260506192103 83 150 5.2 10.4 0.00 0.04 0.04 86 1008.4
20260506191604 83 136 7.0 10.4 0.00 0.04 0.04 87 1008.5
20260506191104 83 134 8.7 11.3 0.00 0.04 0.04 86 1008.5
20260506190603 82 139 7.8 11.3 0.00 0.04 0.04 88 1008.6
20260506185603 81 139 7.8 10.4 0.00 0.04 0.04 90 1008.7
20260506185103 81 146 7.0 10.4 0.00 0.04 0.04 89 1008.8
20260506184103 81 137 7.8 12.2 0.00 0.04 0.04 88 1008.8
20260506183604 82 165 6.1 8.7 0.00 0.04 0.04 87 1008.9
20260506183103 82 150 6.1 7.8 0.00 0.04 0.04 88 1009.0
20260506182602 81 164 4.3 7.8 0.00 0.04 0.04 88 1009.0
20260506182103 81 169 5.2 8.7 0.00 0.04 0.04 90 1009.2
20260506181602 81 162 4.3 7.0 0.00 0.04 0.04 89 1009.2
20260506181102 81 145 5.2 8.7 0.00 0.04 0.04 88 1009.2
20260506180103 82 159 6.1 10.4 0.00 0.04 0.04 87 1009.2
20260506175602 82 144 8.7 11.3 0.00 0.04 0.04 86 1009.2
20260506173603 81 144 7.8 11.3 0.00 0.04 0.04 91 1009.3
20260506173102 81 142 8.7 11.3 0.00 0.04 0.04 91 1009.3
20260506172603 81 139 7.8 10.4 0.00 0.04 0.04 91 1009.4
20260506172103 80 157 6.1 8.7 0.00 0.04 0.04 92 1009.4
20260506171602 80 140 7.8 10.4 0.00 0.04 0.04 92 1009.4
20260506171104 80 135 6.1 13.0 0.00 0.04 0.04 92 1009.4
20260506170602 80 126 5.2 8.7 0.00 0.04 0.04 93 1009.3
20260506170103 80 127 7.8 11.3 0.00 0.04 0.04 92 1009.4
20260506165602 80 148 7.0 10.4 0.00 0.04 0.04 92 1009.3
20260506165102 80 136 6.1 10.4 0.00 0.04 0.04 91 1009.3
20260506164602 81 138 7.0 10.4 0.00 0.04 0.04 91 1009.4
20260506164102 81 123 5.2 10.4 0.00 0.04 0.04 92 1009.3
20260506163603 81 124 7.0 10.4 0.00 0.04 0.04 92 1009.2
20260506163102 80 113 7.0 10.4 0.00 0.04 0.04 91 1009.2
20260506162102 80 126 7.0 12.2 0.00 0.04 0.04 91 1009.1
20260506161601 80 136 8.7 13.0 0.01 0.04 0.04 91 1009.1
20260506161102 80 119 6.1 10.4 0.01 0.04 0.04 93 1009.0
20260506155602 79 144 4.3 7.0 0.01 0.04 0.04 96 1008.7
20260506155102 79 144 1.7 4.3 0.01 0.04 0.04 95 1008.7
20260506154102 79 111 5.2 8.7 0.01 0.04 0.04 96 1008.5
20260506153601 79 109 6.1 7.8 0.01 0.04 0.04 95 1008.5
20260506153101 78 93 6.1 8.7 0.02 0.04 0.04 96 1008.5
20260506152102 78 102 6.1 8.7 0.02 0.04 0.04 96 1008.3
20260506151601 78 96 6.1 8.7 0.01 0.03 0.03 98 1008.2
20260506150601 77 113 6.1 7.0 0.01 0.03 0.03 98 1008.4
20260506150100 77 112 5.2 7.0 0.01 0.03 0.03 98 1008.3
20260506145600 77 109 6.1 7.8 0.01 0.03 0.03 98 1008.3
20260506145101 77 103 3.5 5.2 0.01 0.03 0.03 98 1008.1
20260506144102 77 102 4.3 6.1 0.02 0.03 0.03 98 1008.1
20260506143600 77 99 4.3 7.0 0.02 0.03 0.03 98 1008.1
20260506143101 77 91 6.1 8.7 0.01 0.02 0.02 98 1008.1
20260506142600 77 102 6.1 7.8 0.01 0.02 0.02 98 1008.1
20260506142100 77 98 6.1 7.8 0.01 0.02 0.02 98 1008.0
20260506141601 77 105 6.1 10.4 0.01 0.02 0.02 98 1008.0
20260506140600 77 100 6.1 7.8 0.01 0.02 0.02 98 1007.9
20260506140100 77 104 5.2 7.8 0.01 0.02 0.02 98 1007.9
20260506135600 76 103 5.2 7.0 0.01 0.02 0.02 98 1007.9
20260506134601 76 92 2.6 4.3 0.00 0.01 0.01 98 1008.1
20260506134100 76 86 3.5 6.1 0.00 0.01 0.01 98 1008.1
20260506133559 76 74 3.5 6.1 0.00 0.01 0.01 98 1008.1
20260506133100 76 84 4.3 5.2 0.00 0.01 0.01 98 1008.1
20260506132559 76 89 4.3 6.1 0.00 0.01 0.01 98 1008.1
20260506132101 76 73 4.3 5.2 0.00 0.01 0.01 99 1008.1
20260506131601 76 78 4.3 5.2 0.00 0.01 0.01 99 1008.2
20260506131100 76 88 2.6 4.3 0.00 0.01 0.01 99 1008.1
20260506130059 76 82 3.5 5.2 0.00 0.01 0.01 99 1007.9
20260506125559 76 88 4.3 5.2 0.00 0.01 0.01 99 1007.9
20260506124600 76 65 3.5 5.2 0.00 0.01 0.01 99 1008.0
20260506124059 76 71 2.6 4.3 0.00 0.01 0.01 99 1008.0
20260506123559 76 72 2.6 4.3 0.00 0.01 0.01 99 1008.0
20260506123059 76 84 3.5 5.2 0.00 0.01 0.01 99 1007.9
20260506122559 76 77 2.6 5.2 0.00 0.01 0.01 99 1007.9
20260506122059 75 77 1.7 2.6 0.00 0.01 0.01 99 1008.0
20260506121600 75 77 1.7 4.3 0.00 0.01 0.01 99 1008.0
20260506120559 75 101 3.5 4.3 0.00 0.01 0.01 99 1007.8
20260506120059 76 95 3.5 4.3 0.00 0.01 0.01 98 1007.8
20260506115059 75 93 2.6 5.2 0.00 0.01 0.01 98 1007.6
20260506114558 76 98 3.5 5.2 0.00 0.01 0.01 98 1007.6
20260506114101 76 106 4.3 4.3 0.00 0.01 0.01 98 1007.6
20260506113059 76 110 4.3 5.2 0.00 0.01 0.01 98 1007.5
20260506112558 76 113 4.3 7.0 0.00 0.01 0.01 98 1007.4
20260506112059 76 119 4.3 7.0 0.00 0.01 0.01 98 1007.4
20260506111559 76 108 5.2 7.0 0.00 0.01 0.01 98 1007.3
20260506111059 76 110 5.2 7.8 0.00 0.01 0.01 98 1007.3
20260506110558 76 109 6.1 7.8 0.00 0.01 0.01 98 1007.3
20260506110058 76 106 6.1 7.8 0.00 0.01 0.01 99 1007.3
20260506105558 76 108 5.2 7.0 0.00 0.01 0.01 99 1007.3
20260506105058 76 115 5.2 6.1 0.00 0.01 0.01 98 1007.3
20260506104559 76 114 4.3 6.1 0.00 0.01 0.01 98 1007.3
20260506103057 76 118 5.2 7.8 0.00 0.01 0.01 98 1007.4
20260506102557 76 109 5.2 7.0 0.00 0.01 0.01 98 1007.5
20260506101558 76 123 4.3 6.1 0.00 0.01 0.01 98 1007.3
20260506100557 76 114 4.3 5.2 0.00 0.01 0.01 98 1007.3
20260506100057 76 115 3.5 4.3 0.00 0.01 0.01 98 1007.3
20260506095558 76 127 2.6 4.3 0.00 0.01 0.01 98 1007.3
20260506095057 76 134 3.5 5.2 0.00 0.01 0.01 98 1007.3
20260506094557 76 114 4.3 5.2 0.00 0.01 0.01 98 1007.2
20260506094058 76 109 5.2 6.1 0.00 0.01 0.01 98 1007.2
20260506093558 76 114 4.3 6.1 0.00 0.01 0.01 98 1007.2
20260506093057 76 116 4.3 5.2 0.00 0.01 0.01 98 1007.2
20260506092556 76 115 4.3 5.2 0.00 0.01 0.01 98 1007.2
20260506092057 76 110 4.3 5.2 0.00 0.01 0.01 98 1007.3
20260506091556 76 108 4.3 5.2 0.00 0.01 0.01 98 1007.3
20260506091059 76 112 4.3 6.1 0.00 0.01 0.01 98 1007.1
20260506090057 76 112 4.3 6.1 0.00 0.01 0.01 98 1007.1
20260506084556 76 107 5.2 7.0 0.00 0.01 0.01 98 1007.1
20260506083558 76 117 4.3 6.1 0.00 0.01 0.01 98 1007.1
20260506082556 76 114 5.2 7.0 0.00 0.01 0.01 98 1007.2
20260506081556 76 113 5.2 7.0 0.00 0.01 0.01 98 1007.2
20260506081056 76 112 4.3 5.2 0.00 0.01 0.01 98 1007.3
20260506080556 76 116 5.2 7.0 0.01 0.01 0.01 98 1007.3
20260506073056 76 111 4.3 5.2 0.01 0.01 0.01 98 1007.6
20260506072555 76 110 3.5 5.2 0.01 0.01 0.01 98 1007.7
20260506072056 76 136 2.6 4.3 0.01 0.01 0.01 96 1007.8
20260506071556 76 153 3.5 7.0 0.01 0.01 0.01 96 1007.9
20260506071055 76 148 5.2 7.0 0.01 0.01 0.01 96 1007.9
20260506070555 76 128 5.2 7.0 0.00 0.00 0.00 95 1008.0
20260506062056 77 143 6.1 8.7 0.00 0.00 0.00 93 1008.3
20260506061555 77 148 7.0 10.4 0.00 0.00 0.00 93 1008.3
20260506061055 77 152 6.1 8.7 0.00 0.00 0.00 93 1008.3
20260506060555 77 144 6.1 10.4 0.00 0.00 0.00 93 1008.3
20260506051055 77 140 7.8 11.3 0.00 0.00 0.00 92 1007.9
20260506050554 77 142 8.7 13.9 0.00 0.00 0.00 92 1007.9
20260506045053 77 137 9.6 13.9 0.00 0.00 0.00 92 1007.9
20260506044054 77 137 10.4 13.0 0.00 0.00 0.00 92 1007.8
20260506043554 77 141 10.4 15.6 0.00 0.00 0.00 93 1007.7
20260506043054 77 137 9.6 13.9 0.00 0.00 0.00 92 1007.7
20260506042554 77 136 10.4 15.6 0.00 0.00 0.00 92 1007.7
20260506041553 77 143 11.3 17.4 0.00 0.00 0.00 92 1007.6
20260506041053 77 139 9.6 15.6 0.00 0.00 0.00 92 1007.6
20260506040053 77 136 8.7 13.0 0.00 0.00 0.00 92 1007.6
20260506035553 77 133 10.4 17.4 0.00 0.00 0.00 92 1007.7
20260506035054 77 135 10.4 15.6 0.00 0.00 0.00 92 1007.6
20260506034553 77 138 10.4 13.9 0.00 0.00 0.00 92 1007.6
20260506034054 77 142 9.6 13.0 0.00 0.00 0.00 92 1007.6
20260506033553 77 137 9.6 13.0 0.00 0.00 0.00 92 1007.6
20260506033053 78 134 8.7 13.0 0.00 0.00 0.00 92 1007.6
20260506032554 77 139 7.8 12.2 0.00 0.00 0.00 92 1007.6
20260506032053 78 143 8.7 11.3 0.00 0.00 0.00 92 1007.6
20260506031053 78 146 6.1 10.4 0.00 0.00 0.00 92 1007.6
20260506030552 78 138 8.7 10.4 0.00 0.00 0.00 92 1007.5
20260506030052 78 135 7.8 11.3 0.00 0.00 0.00 92 1007.4
20260506025553 78 138 8.7 11.3 0.00 0.00 0.00 91 1007.4
20260506024553 78 138 7.8 10.4 0.00 0.00 0.00 91 1007.2
20260506024053 78 145 7.8 13.0 0.00 0.00 0.00 91 1007.2
20260506023552 78 139 7.0 10.4 0.00 0.00 0.00 91 1007.0
20260506023052 78 144 8.7 13.0 0.00 0.00 0.00 91 1007.0
20260506022552 78 135 8.7 11.3 0.00 0.00 0.00 91 1007.0
20260506022053 78 140 7.8 13.0 0.00 0.00 0.00 91 1007.0
20260506021552 78 150 7.8 11.3 0.00 0.00 0.00 91 1006.9
20260506021052 78 141 7.8 11.3 0.00 0.00 0.00 91 1006.8
20260506020552 78 147 9.6 13.0 0.00 0.00 0.00 89 1006.7
20260506020051 78 139 8.7 11.3 0.00 0.00 0.00 89 1006.7
20260506015052 78 145 8.7 13.0 0.00 0.00 0.00 89 1006.6
20260506014052 78 149 8.7 13.0 0.00 0.00 0.00 89 1006.3
20260506013553 78 144 7.8 12.2 0.00 0.00 0.00 89 1006.4
20260506013052 78 149 7.8 11.3 0.00 0.00 0.00 89 1006.4
20260506012551 78 145 9.6 13.9 0.00 0.00 0.00 89 1006.3
20260506012052 78 141 8.7 15.6 0.00 0.00 0.00 89 1006.3
20260506011051 78 143 9.6 13.0 0.00 0.00 0.00 88 1006.1
20260506010551 78 136 9.6 13.9 0.00 0.00 0.00 88 1006.0
20260506010051 79 142 7.8 13.0 0.00 0.00 0.00 87 1006.0
20260506005551 79 141 8.7 17.4 0.00 0.00 0.00 87 1006.0
20260506003550 79 137 8.7 12.2 0.00 0.00 0.00 86 1005.7
20260506003051 79 148 7.8 12.2 0.00 0.00 0.00 86 1005.6
20260506002550 79 145 8.7 13.9 0.00 0.00 0.00 85 1005.6
20260506002051 80 151 10.4 15.6 0.00 0.00 0.00 85 1005.6